COSMOS 2251 DEB, 47053

Orbit data source: Space-Track

COSMOS 2251 DEB, 47053 is space debris in LEO originally from a launch on Wed, 16 Jun 1993 UTC launched from the Plesetsk Missile And Space Complex (PKMTR). The debris from Iridium 33, an American commercial communications satellite, has been tracked extensively since its accidental collision with the defunct Russian satellite Cosmos 2251 in 2009. This event, occurring at high speed in low Earth orbit (LEO), generated thousands of pieces of space debris, significantly increasing the risk of further collisions. The Iridium 33 debris cloud has impacted space traffic management and orbital debris mitigation strategies, making it a subject of ongoing study in space situational awareness.

Loading next visibility...
Identifier
47053, 1993-036BXH
Orbit
LEO
Country
Flag of CISCIS
Related business
Manufacturer
Unknown
Mission
Spacecraft
Bus & Motor
Unknown
Mass
Unknown
Launch date (UTC)
1993-06-16 (33 years ago)
Launch vehicle
Unknown
Launch site
Plesetsk Missile And Space Complex (PKMTR)
Object type
Payload
Rocket body
Debris
Shape & HBR
Unknown shape, 0.1 m
Radar Cross Section
Small (<0.1 m²)

Expand to show TLE details & history
Last TLE update: 5 days ago

TLE from 5 days ago
0 COSMOS 2251 DEB
1 47053U 93036BXH 26258.44354346  .00000439  00000-0  38508-3 0  9999
2 47053  74.0603 165.8997 0378199 278.2241 204.1965 13.60254609326508
Epoch: 2026-09-15T10:38Z
TLE epoch observation values (Epoch: 2026-09-15T10:38:42.154Z)
Latitude
55.85478°
Longitude
167.04108°
Altitude
1,301.146 km
Speed
7.085 km/s
True Right ascension
21h 24m 30s
True Declination
55° 42' 22"
Sunlit
Object was in daylight at epoch
Visualization orbit readout
Latitude
Unknown
Longitude
Unknown
Altitude
Unknown
Speed
Unknown
Apparent Right ascension
Unknown
Apparent Declination
Unknown
Sunlit
N/A
Visualization observer readout
Local Sidereal Time
05:31:58
Azimuth
Unknown
Elevation
Unknown
Doppler factor
Unknown
Orbital elements
Apogee altitude
1,312.737 km
Perigee altitude
752.2 km
Semi-major axis
7,410.606 km
Eccentricity
0.03782
Inclination
74.0603°
RAAN
165.8997°
Arg. of periapsis
278.2241°
True anomaly
202.49399°
Mean anomaly
204.1965°
Eccentric anomaly
203.33806°
Mean motion
3.40222 °/min
Orbital period
105.81 mins
BSTAR
0.00038508
Loading maneuver chart data...
Computing Atmospheric mass density...

Documentation

Showing up to 5 results
|